Regional Weather Roundup
Issued by NWS

Home | Current Version | Previous Version | Text Only | Print | Product List | Glossary Off
Versions: 1 2 3 4 5 6 7 8 9 10 11 12 13 14 15 16 17 18 19 20 21 22 23 24 25 26 27 28 29 30 31 32 33 34 35 36 37 38 39 40 41 42 43 44 45 46 47 48 49 50

000
ASUS43 KMKX 020200
RWRWI

WISCONSIN REGIONAL WEATHER ROUNDUP
NATIONAL WEATHER SERVICE MILWAUKEE/SULLIVAN WI
900 PM CDT FRI AUG 01 2014

NOTE: "FAIR" INDICATES FEW OR NO CLOUDS BELOW 12,000 FEET WITH NO
SIGNIFICANT WEATHER AND/OR OBSTRUCTIONS TO VISIBILITY.

WIZ001-002-006>008-014>016-023>028-020300-
NORTHWEST WISCONSIN

CITY           SKY/WX    TMP DP  RH WIND       PRES   REMARKS
SUPERIOR ARPT  CLEAR     58  54  86 CALM      30.08R
ASHLAND        CLEAR     59  58  96 NE3       30.09R
HAYWARD        CLEAR     68  63  84 CALM      30.09R
SIREN          MOCLDY    71  63  76 CALM      30.07R
RICE LAKE      CLEAR     70  61  72 CALM      30.09R
LADYSMITH      CLEAR     69  60  72 CALM      30.11R
EAU CLAIRE     NOT AVBL
MENOMONIE      CLEAR     73  63  71 E3        30.06S
NEW RICHMOND   PTCLDY    74  60  60 SE3       30.07R
OSCEOLA        PTCLDY    75  63  66 CALM      30.08R
$$

WIZ003>005-009-010-017-018-020300-
NORTH CENTRAL WISCONSIN

CITY           SKY/WX    TMP DP  RH WIND       PRES   REMARKS
WOODRUFF       CLEAR     63  48  57 CALM      30.12S
RHINELANDER    CLEAR     63  55  75 CALM      30.12R
EAGLE RIVER    CLEAR     61  55  78 CALM      30.11S
LAND O LAKES   CLEAR     60  57  92 CALM      30.13R
PHILLIPS       PTCLDY    64  58  83 CALM      30.11R
TOMAHAWK       CLEAR     62  58  88 CALM      30.11R
MEDFORD        CLEAR     64  60  87 S5        30.11R
MERRILL        MOCLDY    68  61  76 SW6       30.10R
$$

WIZ029-030-035-036-043>047-020300-
CENTRAL WISCONSIN

CITY           SKY/WX    TMP DP  RH WIND       PRES   REMARKS
WAUSAU         PTCLDY    66  60  81 W5        30.08S
MOSINEE        PTCLDY    64  59  82 CALM      30.11R
MARSHFIELD     PTCLDY    63  60  90 SW5       30.09S
STEVENS POINT  MOCLDY    59  57  92 CALM      30.10R
WAUPACA        MOCLDY    66  56  70 CALM      30.08S
WAUTOMA        NOT AVBL
WISC RAPIDS    PTCLDY    60  57  89 SW3       30.11R
CAMP DOUGLAS   NOT AVBL
$$

WIZ011>013-019>022-031-037>040-048>050-020300-
NORTHEAST WISCONSIN

CITY           SKY/WX    TMP DP  RH WIND       PRES   REMARKS
ANTIGO         PTCLDY    65  60  85 W6        30.10S
STURGEON BAY   MOCLDY    64  59  82 SE3       30.09R
GREEN BAY      MOCLDY    68  63  84 W5        30.08R
MANITOWOC      NOT AVBL
APPLETON       MOCLDY    66  61  82 VRB5      30.09R
CLINTONVILLE   MOCLDY    64  57  77 CALM      30.08R
OSHKOSH        CLOUDY    65  63  93 CALM      30.08R
$$

WIZ032>034-041-042-053>061-020300-
SOUTHWEST WISCONSIN

CITY           SKY/WX    TMP DP  RH WIND       PRES   REMARKS
LA CROSSE      PTCLDY    75  61  61 E10       30.06R
SPARTA         CLOUDY    69  55  62 SE5       30.10S
VIROQUA        FAIR      70  57  63 E9        30.12R
BOSCOBEL       PTCLDY    72  51  47 VRB3      30.10R
PRAIRIE DU CHI CLEAR     72  61  68 CALM      30.07R
PLATTEVILLE    FAIR      71  55  56 E10       30.10R
$$

WIZ056-057-062-063-064-067-068-020300-
SOUTH CENTRAL WISCONSIN

CITY           SKY/WX    TMP DP  RH WIND       PRES   REMARKS
BARABOO/DELLS  LGT RAIN  65  55  70 NW5G18    30.13R
LONE ROCK      NOT AVBL
WATERTOWN      CLOUDY    64  57  77 SE6       30.06F
MADISON        CLOUDY    63  57  81 W5        30.07F
MIDDLETON      FAIR      66  57  72 CALM      30.09F
MONROE         MOCLDY    66  55  68 NE9       30.10S
JANESVILLE     MOCLDY    66  57  72 E6        30.11R
$$

WIZ051-052-058>065-066-070>072-020300-
SOUTHEAST WISCONSIN

CITY           SKY/WX    TMP DP  RH WIND       PRES   REMARKS
MILWAUKEE      CLOUDY    65  57  75 SW12      30.10S
WAUKESHA       NOT AVBL
MILWAUKEE/TIMM NOT AVBL
RACINE         LGT RAIN  64  59  83 S8        30.12F
BURLINGTON     RAIN      62  55  78 SW9G22    30.16R
KENOSHA        TSTM      64  56  75 N16G22    30.13F
FOND DU LAC    CLOUDY    64  58  80 S6        30.09R
SHEBOYGAN      MOCLDY    66  58  75 SW8       30.09R
WEST BEND      CLOUDY    66  54  63 SW3       30.10S
JUNEAU         CLOUDY    65  51  58 NE8       30.09S
$$

LSZ147-162-020300-
LAKE SUPERIOR

STATION/POSITION TIME  TEMP    WIND        PRES    WAVE
                       AIR SEA DIR/SP/G            HT/PER
                 (UTC) (F)     (DEG/KT/KT) (MB)    (FT/S)
W MID LAKE BUOY  0050   51 48  340/  4/  4 1019.0R
PORT WING        0140   60      30/  9/ 12 1018.3R
SAXON HARBOR     0100             CALM     1018.6
$$

LMZ867-665-643>646-020300-
LAKE MICHIGAN

STATION/POSITION TIME  TEMP    WIND        PRES    WAVE
                       AIR SEA DIR/SP/G            HT/PER
                 (UTC) (F)     (DEG/KT/KT) (MB)    (FT/S)
N MID LAKE BUOY  0050   63 60   60/  2/  4 1017.9R   0
NORTHPORT PIER   0100   65     160/  4/  6 1018.3R
ALGOMA LAKESHORE 0006             CALM       N/A
KEWAUNEE LAKESHO 0100   62     180/  5/  6 1017.3R
SHEBOYGAN LAKESH 0100   71     230/  8/  9 1018.1R
PORT WASHINGTON  0140   68     270/  7/ 11 1019.0R
ATWATER BUOY     0100   68     200/ 14     1019.6R
MILWAUKEE LAKESH 0100   67     210/ 13/ 15   N/A
S MID LAKE BUOY  0050   66 65  240/  4/ 12 1018.9R   0
KENOSHA   LAKESH 0100   70      20/ 25/ 32 1018.6R
$$

TC  - TEMPERATURE IN CELSIUS
VSB - VISIBILITY IN STATUTE MILES
WCI - WIND CHILL INDEX
HX  - HEAT INDEX



USA.gov is the U.S. government's official web portal to all federal, state and local government web resources and services.